STARLINK-5200, 54103

Orbit data source: Space-Track

STARLINK-5200, 54103 is a payload satellite owned by SpaceX/Seattle (US) in LEO that was launched on Thu, 20 Oct 2022 UTC via an FALCON 9 launch vehicle from the Air Force Eastern Test Range (AFETR). Payload-class satellites include a variety of spacecraft equipped with specific instruments for various scientific and technological missions. These include communications satellites like Starlink; space stations such as the ISS; scientific satellites like the Hubble; Earth observation satellites from companies like Planet Labs, Umbra, and HawkEye 360; GPS; miniature CubeSats for education and research; and military/defense satellites.

Loading next visibility...
Identifier
54103, 2022-136BE
Orbit
LEO
Country
Flag of USUS
Related business
Manufacturer
SpaceX/Seattle
Mission
Operational Commercial Communications
Bus & Motor
STARLINK, Unknown motor
Mass
305 kg wet, ~290 kg dry
Launch date (UTC)
2022-10-20 (3 years ago)
Launch vehicle
FALCON 9
Launch site
Air Force Eastern Test Range (AFETR)
Object type
Payload
Rocket body
Debris
Shape & HBR
Box + 1 Pan, 10.1 m
Radar Cross Section
13.562 m², Large (>1 m²)

Expand to show TLE details & history
Last TLE update: 14 hours ago

TLE from 14 hours ago
0 STARLINK-5200
1 54103U 22136BE  25303.96369889  .00000944  00000-0  77418-4 0  9996
2 54103  53.2155 176.2689 0001517  88.8590 271.2576 15.08844318167687
Epoch: 2025-10-30T23:07Z
TLE epoch observation values (Epoch: 2025-10-30T23:07:43.584Z)
Latitude
Longitude
149.82236°
Altitude
540.605 km
Speed
7.593 km/s
True Right ascension
11h 45m 04s
True Declination
0° 00' 00"
Sunlit
Object was in daylight at epoch
Visualization orbit readout
Latitude
Unknown
Longitude
Unknown
Altitude
Unknown
Speed
Unknown
Apparent Right ascension
Unknown
Apparent Declination
Unknown
Sunlit
N/A
Visualization observer readout
Local Sidereal Time
08:56:32
Azimuth
Unknown
Elevation
Unknown
Doppler factor
Unknown
Orbital elements
Apogee altitude
541.025 km
Perigee altitude
538.926 km
Semi-major axis
6,918.112 km
Eccentricity
0.00015
Inclination
53.2155°
RAAN
176.2689°
Arg. of periapsis
88.859°
True anomaly
271.24022°
Mean anomaly
271.2576°
Eccentric anomaly
271.24891°
Mean motion
3.77191 °/min
Orbital period
95.44 mins
BSTAR
0.000077418
Loading maneuver chart data...
Computing Atmospheric mass density...
Loading historical data...
Loading historical data...
Loading historical data...
Loading historical data...
Loading historical data...
Loading historical data...
Loading historical data...

Documentation

Showing up to 5 results
|